Regional Weather Roundup
Issued by NWS

Home | Current Version | Previous Version | Text Only | Print | Product List | Glossary On
Versions: 1 2 3 4 5 6 7 8 9 10 11 12 13 14 15 16 17 18 19 20 21 22 23 24 25 26 27 28 29 30 31 32 33 34 35 36 37 38 39 40 41 42 43 44 45 46 47 48 49 50
000
ASUS45 KBOU 262207
RWRCO

WEATHER ROUNDUP FOR COLORADO
NATIONAL WEATHER SERVICE DENVER/BOULDER CO
300 PM MST WED NOV 26 2014

NOTE: "FAIR" INDICATES FEW OR NO CLOUDS BELOW 12000 FEET WITH NO
SIGNIFICANT WEATHER AND/OR OBSTRUCTIONS TO VISIBILITY.

COZ001>005-013-030-031-262300-
...NORTHWEST COLORADO...

CITY           SKY/WX    TMP DP  RH WIND       PRES   REMARKS
CRAIG          MOSUNNY   51  29  42 W10       30.30R
HAYDEN         MOSUNNY   45  27  49 W13       30.30S
MEEKER         SUNNY     48  28  46 CALM      30.33R
MOUNT WERNER   NOT AVBL
STEAMBOAT SPGS CLOUDY    38  31  76 E5        30.32R
WALDEN         MOSUNNY   36  27  69 SW17G26   30.25S
$$

COZ006>008-011-262300-
...WEST CENTRAL VALLEYS...

CITY           SKY/WX    TMP DP  RH WIND       PRES   REMARKS
GRAND JUNCTION SUNNY     50  21  32 NW6       30.36R
MONTROSE       SUNNY     54  26  34 N6        30.36R
EAGLE          MOSUNNY   46  28  49 W17       30.35R
RIFLE          SUNNY     44  26  49 E3        30.36F
DELTA          SUNNY     55  25  30 NW3       30.35S
NUCLA          SUNNY     54  25  32 W3        30.41S
$$

COZ017>023-064>068-262300-
...SOUTHWEST COLORADO...

CITY           SKY/WX    TMP DP  RH WIND       PRES   REMARKS
DURANGO        SUNNY     53  22  29 E9        30.32S
CORTEZ         SUNNY     57  23  26 NW15G21   30.35S
PAGOSA SPRINGS SUNNY     49  18  29 SW5       30.36S
TELLURIDE      SUNNY     41  24  51 W6        30.45S
WOLF CREEK PAS SUNNY     32  12  43 MISG      30.47R
$$

COZ009-010-012-014-032>034-037-058>063-262300-
...CENTRAL COLORADO...

CITY           SKY/WX    TMP DP  RH WIND       PRES   REMARKS
ASPEN          SUNNY     39  27  62 NW7       30.36R
BUENA VISTA    SUNNY     48  20  33 NW18G25   30.25R
COPPER MTN     PTSUNNY   28  23  80 W32G43    30.38R WCI  12
BERTHOUD PASS  NOT AVBL
COTTONWOOD PAS SUNNY     43  18  36 W23G35    30.29R
GUNNISON       SUNNY     45  25  45 SW14      30.37S
KREMMLING      PTSUNNY   41  27  56 W8        30.32S
LEADVILLE      MOSUNNY   33  21  61 NW16G26   30.35S WCI  23
MONARCH PASS   CLOUDY    23  23 100 MISG      30.44F
SALIDA         SUNNY     51  24  33 W22G28    30.32R
SUNLIGHT       SUNNY    N/A N/A N/A CALM      30.44R
WILKERSON PASS MOSUNNY   32  16  51 W5        30.32R WCI  27
$$

COZ069>075-262300-
...SAN LUIS VALLEY/SANGRE DE CRISTO MOUNTAINS...

CITY           SKY/WX    TMP DP  RH WIND       PRES   REMARKS
ALAMOSA        SUNNY     50  18  28 W8        30.31R
LA VETA PASS   NOT AVBL
SAGUACHE       MOSUNNY   48  23  37 NW21G33   30.32R
$$

COZ035-036-038>040-262300-
...NORTHERN COLORADO FRONT RANGE...

CITY           SKY/WX    TMP DP  RH WIND       PRES   REMARKS
DENVER INTL AP MOSUNNY   41  24  51 E15       30.14R
DMNS CITY PARK   N/A     47  24  40 NE8       30.12R
AURORA         PTSUNNY   46  25  45 N9        30.15R
FRONT RANGE AP NOT AVBL
ERIE MUNI ARPT MOSUNNY   44  24  45 E9        30.14R
BOULDER MUN AP MOSUNNY   41  27  56 N9        30.14R
CENTENNIAL     PTSUNNY   47  24  40 W3        30.13S
BROOMFIELD     MOSUNNY   46  27  46 NE12      30.12S
FORT COLLINS   SUNNY     39  23  52 E8        30.19R
LONGMONT       SUNNY     45  25  45 NE9       30.17S
$$

COZ041-046-047-076>085-087-088-262300-
...PIKES PEAK/PALMER DIVIDE AND SOUTHERN FOOTHILLS...

CITY           SKY/WX    TMP DP  RH WIND       PRES   REMARKS
COLO. SPRINGS  PTSUNNY   39  26  59 S10       30.22R
A. F. ACADEMY  SUNNY     39  25  56 S10       30.19R
ELLICOTT       NOT AVBL
FALCON         NOT AVBL
FORT CARSON    SUNNY     39  26  58 S9        30.21R
LIMON          SUNNY     41  25  53 S14       30.18R
MONUMENT HILL  SUNNY     45  23  42 W8        30.15S
TRINIDAD       SUNNY     48  32  53 SE5       30.19R
$$

COZ042>045-048>051-090-091-262300-
...NORTHEAST COLORADO...

CITY           SKY/WX    TMP DP  RH WIND       PRES   REMARKS
GREELEY ARPT   SUNNY     37  21  52 SE12      30.20R
AKRON          CLOUDY    30  24  78 SE5       30.23R WCI  25
BURLINGTON     MOSUNNY   35  24  64 CALM      30.26R
WRAY           CLOUDY    35  27  73 CALM      30.28R
STERLING       CLOUDY    34  28  80 CALM      30.25R
HOLYOKE        LGT SNOW  34  30  86 W3        30.27S
FORT MORGAN    MOSUNNY   33  23  68 E7        30.22S WCI  27
$$

COZ086-089-092>099-262300-
...SOUTHEAST COLORADO...

CITY           SKY/WX    TMP DP  RH WIND       PRES   REMARKS
PUEBLO         SUNNY     44  26  49 SE7       30.23R
LA JUNTA       SUNNY     44  22  41 SE9       30.23S
LAMAR          SUNNY     45  22  40 S3        30.22F
SPRINGFIELD      N/A     44  22  41 CALM      30.25R
$$



USA.gov is the U.S. government's official web portal to all federal, state and local government web resources and services.